Change the Weather History Date:

Sunday, March 17, 2013

  Actual Average Record
Temperature  
Mean Temperature 38 °F -  
Max Temperature 44 °F 50 °F 62 °F (1999)
Min Temperature 32 °F 37 °F 30 °F (2003)
Degree Days  
Heating Degree Days 27    
Moisture  
Dew Point 36 °F    
Average Humidity 96    
Maximum Humidity 100    
Minimum Humidity 87    
Precipitation  
Precipitation 0.00 in - - ()
Sea Level Pressure  
Sea Level Pressure 29.21 in    
Wind  
Wind Speed 7 mph ()    
Max Wind Speed 16 mph    
Max Gust Speed -    
Visibility 5.5 miles    
Events Rain , Snow    
Averages and records for this station are not official NWS values.
T = Trace of Precipitation, MM = Missing Value Source: Averaged Metar Reports

Daily Weather History Graph

Daily Weather History Graph

Search for Another Location

Airport or City:

Trip Planner

Search our weather history database for the weather conditions in past years. The results will help you decide how hot, cold, wet, or windy it might be!

Date:

Astronomy

Mar. 17, 2013 Rise Set
Actual Time 6:10 AM GMT 6:09 PM GMT
Civil Twilight 5:37 AM GMT 6:43 PM GMT
Nautical Twilight 4:58 AM GMT 7:22 PM GMT
Astronomical Twilight 4:17 AM GMT 8:03 PM GMT
Moon 8:33 AM GMT (3/17) No Moon Set
Length of Visible Light 13h 05m
Length of Day
11h 58m
Waxing Crescent, 30% of the Moon is Illuminated
Mar 17
Waxing Crescent
Mar 19
First Quarter
Mar 27
Full
Apr 3
Last Quarter
Apr 10
New

Hourly Weather History & Observations

Time (GMT) Temp. Windchill Dew Point Humidity Pressure Visibility Wind Dir Wind Speed Gust Speed Precip Events Conditions
12:20 AM 39.2 °F 30.5 °F 35.6 °F 87% 29.27 in 6.2 mi SW 16.1 mph - N/A   Scattered Clouds
12:50 AM 39.2 °F 31.2 °F 35.6 °F 87% 29.27 in 6.2 mi SW 13.8 mph - N/A   Scattered Clouds
1:20 AM 37.4 °F 29.8 °F 35.6 °F 93% 29.30 in 6.2 mi SW 11.5 mph - N/A   Mostly Cloudy
1:50 AM 37.4 °F 29.8 °F 35.6 °F 93% 29.30 in 6.2 mi SW 11.5 mph - N/A   Mostly Cloudy
2:20 AM 37.4 °F 29.8 °F 35.6 °F 93% 29.30 in 6.2 mi SW 11.5 mph - N/A   Partly Cloudy
2:50 AM 37.4 °F 29.8 °F 33.8 °F 87% 29.30 in 6.2 mi SW 11.5 mph - N/A   Mostly Cloudy
3:20 AM 35.6 °F 29.2 °F 33.8 °F 93% 29.27 in 6.2 mi WSW 8.1 mph - N/A   Overcast
3:50 AM 35.6 °F 29.9 °F 33.8 °F 93% 29.27 in 6.2 mi WSW 6.9 mph - N/A   Mostly Cloudy
4:20 AM 35.6 °F 32.8 °F 33.8 °F 93% 29.27 in 6.2 mi SW 3.5 mph - N/A   Mostly Cloudy
4:50 AM 35.6 °F - 33.8 °F 93% 29.27 in 6.2 mi Calm Calm - N/A   Mostly Cloudy
5:20 AM 35.6 °F - 33.8 °F 93% 29.27 in 6.2 mi Calm Calm - N/A   Mostly Cloudy
5:50 AM 35.6 °F - 33.8 °F 93% 29.27 in 6.2 mi Calm Calm - N/A   Scattered Clouds
6:20 AM 35.6 °F 30.7 °F 35.6 °F 100% 29.27 in 6.2 mi SE 5.8 mph - N/A Rain Light Rain
6:50 AM 35.6 °F 32.8 °F 35.6 °F 100% 29.27 in 6.2 mi SE 3.5 mph - N/A Rain Light Rain
7:20 AM 37.4 °F 34.9 °F 35.6 °F 93% 29.27 in 6.2 mi SE 3.5 mph - N/A   Overcast
7:50 AM 37.4 °F 32.8 °F 37.4 °F 100% 29.24 in 6.2 mi ESE 5.8 mph - N/A   Mostly Cloudy
8:20 AM 37.4 °F 32.8 °F 37.4 °F 100% 29.24 in 6.2 mi ESE 5.8 mph - N/A   Overcast
8:50 AM 41.0 °F 34.7 °F 41.0 °F 100% 29.21 in 6.2 mi SE 10.4 mph - N/A   Mostly Cloudy
9:20 AM 41.0 °F 34.7 °F 41.0 °F 100% 29.21 in 6.2 mi SE 10.4 mph - N/A   Mostly Cloudy
9:50 AM 41.0 °F 35.2 °F 41.0 °F 100% 29.21 in 6.2 mi SSE 9.2 mph - N/A Rain Rain
10:20 AM 44.6 °F 38.4 °F 41.0 °F 87% 29.21 in 6.2 mi SSE 12.7 mph - N/A   Mostly Cloudy
10:50 AM 42.8 °F 35.8 °F 41.0 °F 93% 29.18 in 5.6 mi SSE 13.8 mph - N/A Rain Light Rain Showers
11:20 AM 42.8 °F 35.8 °F 39.2 °F 87% 29.18 in 6.2 mi SSE 13.8 mph - N/A Rain Light Rain
11:50 AM 35.6 °F 29.2 °F 35.6 °F 100% 29.21 in 3.7 mi SW 8.1 mph - N/A Rain Light Rain
12:20 PM 37.4 °F 34.9 °F 37.4 °F 100% 29.18 in 6.2 mi Variable 3.5 mph - N/A   Mostly Cloudy
12:50 PM 39.2 °F 37.0 °F 39.2 °F 100% 29.18 in 6.2 mi Variable 3.5 mph - N/A   Drizzle
1:20 PM 41.0 °F 36.4 °F 39.2 °F 93% 29.18 in 5.0 mi South 6.9 mph - N/A Rain Rain
1:50 PM 42.8 °F 39.3 °F 41.0 °F 93% 29.15 in 6.2 mi South 5.8 mph - N/A   Mostly Cloudy
2:20 PM 39.2 °F 33.0 °F 37.4 °F 93% 29.15 in 6.2 mi West 9.2 mph - N/A Rain Light Rain
2:50 PM 37.4 °F 32.8 °F 37.4 °F 100% 29.15 in 6.2 mi West 5.8 mph - N/A   Light Drizzle
3:20 PM 37.4 °F 34.9 °F 37.4 °F 100% 29.15 in 6.2 mi Variable 3.5 mph - N/A   Light Drizzle
3:50 PM 37.4 °F 33.8 °F 37.4 °F 100% 29.15 in 3.7 mi WNW 4.6 mph - N/A   Drizzle
4:20 PM 37.4 °F 32.8 °F 35.6 °F 93% 29.15 in 6.2 mi West 5.8 mph - N/A Rain Light Rain
4:50 PM 35.6 °F 31.7 °F 35.6 °F 100% 29.15 in 3.7 mi West 4.6 mph - N/A Rain Rain
5:20 PM 35.6 °F - 33.8 °F 93% 29.15 in 3.7 mi Calm Calm - N/A Snow Snow
5:50 PM 33.8 °F 30.8 °F 33.8 °F 100% 29.15 in 6.2 mi Variable 3.5 mph - N/A   Light Drizzle
6:20 PM 35.6 °F 32.8 °F 33.8 °F 93% 29.18 in 5.6 mi Variable 3.5 mph - N/A   Light Drizzle
6:50 PM 35.6 °F 31.7 °F 35.6 °F 100% 29.18 in 6.2 mi NW 4.6 mph - N/A   Mostly Cloudy
7:20 PM 35.6 °F 30.7 °F 35.6 °F 100% 29.18 in 4.3 mi NW 5.8 mph - N/A   Light Drizzle
7:50 PM 33.8 °F 27.7 °F 33.8 °F 100% 29.18 in 5.0 mi NW 6.9 mph - N/A   Overcast
8:20 PM 33.8 °F 27.0 °F 33.8 °F 100% 29.18 in 3.7 mi NW 8.1 mph - N/A   Overcast
8:50 PM 33.8 °F 27.7 °F 33.8 °F 100% 29.18 in 5.0 mi WNW 6.9 mph - N/A   Scattered Clouds
9:20 PM 33.8 °F 27.0 °F 33.8 °F 100% 29.18 in 2.5 mi WNW 8.1 mph - N/A   Scattered Clouds
9:50 PM 33.8 °F 27.7 °F 33.8 °F 100% 29.18 in 3.1 mi West 6.9 mph - N/A   Scattered Clouds
10:20 PM 33.8 °F 26.4 °F 33.8 °F 100% 29.18 in 1.0 mi West 9.2 mph - N/A   Overcast
10:50 PM 32.0 °F 27.5 °F 32.0 °F 100% 29.18 in - West 4.6 mph - N/A   Scattered Clouds
11:20 PM 32.0 °F 26.4 °F 32.0 °F 100% 29.21 in - WSW 5.8 mph - N/A   Partly Cloudy
11:50 PM 32.0 °F 26.4 °F 32.0 °F 100% 29.21 in - WSW 5.8 mph - N/A   Mist